Location: Misciano
(43.5000°N, 11.9500°E)
Time: 06:07:34
(UTC+00:00)

BREEZE-M DEB (TANK) - Pass Details

Date: 13 August 2020
Orbit: 280 x 20488 km, 49.2° (Epoch: 23 September)

Event Time Altitude Azimuth Distance (km) Brightness Sun altitude
Rises 19:57:06 0° 285° (WNW) 3,052 7.8 -16.4°
Reaches altitude 10° 20:00:17 10° 301° (WNW) 1,435 6.2 -16.8°
Maximum altitude 20:02:23 22° 358° (N) 725 3.9 -17.1°
Enters shadow 20:03:13 17° 35° (NE) 819 3.8 -17.2°
